Погода в Илфорде

Канада     56°04′01″N   95°36′15″W
темп.,
°C
ветер,
м/с
пор.,
м/с
влажн.,
%
обл.,
%
осадки,
мм/ч
давл.,
гПа
погр.,
м
25 февраля, чт
чт2500:00−24юз1296100 0.0 102020
03:00−24ююз239985 0.0 101935
06:00−23ююз2310088 0.0 101675
09:00−19ююз499799 0.0 1012278
12:00−12ююз5119199 0.1 1006461
15:00−6юз61388100 0.0 1002829
18:00−6зсз2696100 0.9 1001305
21:00−17св71295100 1.3 1003471
26 февраля, пт
пт2600:00−28св61297100 2.3 1004398
03:00−31св61397100 0.7 1007435
06:00−32св61397100 1.5 1008420
09:00−32ссв51195100 0.4 1011413
12:00−30ссв4886100 0.4 1012449
15:00−28ссв478860 0.0 1013472
18:00−32с239330 0.0 101621
21:00−34ссз23930 0.0 101919
27 февраля, сб
сб2700:00−35сз23950 0.0 102019
03:00−36зсз23950 0.0 102128
06:00−37з33920 0.0 102265
09:00−33зсз36880 0.0 1023205
12:00−27зюз369028 0.0 1023374
15:00−24зюз478897 0.0 1022508
18:00−26зюз259398 0.0 1021141
21:00−25юз2795100 0.0 1021217
28 февраля, вс
вс2800:00−25юз2599100 0.1 1019169
03:00−25зюз1299100 0.2 101732
06:00−26ссз1199100 0.3 101719
09:00−26с359799 0.1 1017261
12:00−25ссз349299 0.1 1018505
15:00−25сз3687100 0.0 1019744
18:00−29зсз339183 0.0 102169
21:00−31з38930 0.0 1022182
1 марта, пн
пн100:00−32з36950 0.0 1022126
03:00−31з310930 0.0 1023198
06:00−29зюз388949 0.0 1023231
09:00−26юз3690100 0.0 1020209
12:00−20ю3690100 0.0 1017307
15:00−16ю4794100 0.1 1013509
18:00−17ю2597100 0.4 1011141
21:00−17ююв2297100 0.1 100967